{"data":{"norad_id":63322,"epoch":"2026-05-24T21:08:32.554176Z","epoch_age_seconds":95745,"freshness":"FRESH","line1":"1 63322U 25057R   26144.88093234  .00013898  00000+0  51346-3 0  9999","line2":"2 63322  43.0027 320.2370 0001917 250.0051 110.0595 15.27589484 67436","mean_motion":15.27589484,"eccentricity":0.0001917,"inclination_deg":43.0027,"raan_deg":320.237,"arg_perigee_deg":250.0051,"mean_anomaly_deg":110.0595,"bstar":0.00051346,"rev_number":6743,"period_min":94.266163460968,"perigee_km":481.70541374808,"apogee_km":484.33598160937,"semimajor_km":6861.1576976787,"source":"CELESTRAK","updated_at":"2026-05-25T13:38:19.959111Z"}}